SKBQ Airport Information

Runway Information
Runway 05 Length 9842 ft width 148 ft
Elevation 98 ft Threshold 0 ft Heading 40
Runway 23 Length 9842 ft Width 148 ft
Elevation 98 ft Threshold 0 ft Heading 220
Airport Frequencies
Type APP Name BARRANQUIL Frequency 119.1 MHZ
Type ATIS Name ATIS Frequency 113.7 MHZ
Type GND Name GND Frequency 121.9 MHZ
Type RDO Name BARRANQUIL Frequency 348.8 MHZ
Type TWR Name TWR Frequency 118.1 MHZ
Airport Navaids
Type NDB Name Barranquilla Frequency 264 KHZ
Type VOR-DME Name Barranquilla Frequency 113700 KHZ
Airport Weather Information & NOTAM
ADDS - METARS form results

(1452 UTC 22 July 2018)
 
METAR text: SKBQ 221400Z 02009KT 9999 SCT015 BKN200 29/24 A2982
Conditions at: SKBQ (BARRANQUILLA/ERN, CO) observed 1400 UTC 22 July 2018
Temperature: 29.0°C (84°F)
Dewpoint: 24.0°C (75°F) [RH = 74%]
Pressure (altimeter): 29.82 inches Hg (1009.9 mb)
Winds: from the NNE (20 degrees) at 10 MPH (9 knots; 4.7 m/s)
Visibility: 6 or more miles (10+ km)
Ceiling: 20000 feet AGL
Clouds: scattered clouds at 1500 feet AGL
broken clouds at 20000 feet AGL
Weather: no significant weather observed at this time